Location: Cornospital
(48.0620°N, 3.3837°W)
Time: 00:55:00
(UTC+00:00)

Cosmos 292 Rocket - Visible Passes

Search period start: 24 October 2021 00:00
Search period end: 03 November 2021 00:00
Orbit: 672 x 695 km, 74.0° (Epoch: 23 October)

Date Brightness Start Highest point End Pass type
(mag) Time Alt. Az. Time Alt. Az. Time Alt. Az.
24 Oct 5.9 04:39:27 10° N 04:43:32 26° NE 04:47:35 10° ESE visible
25 Oct 6.7 03:38:39 10° NNE 03:40:31 12° NE 03:42:22 10° ENE visible
25 Oct 4.2 05:16:58 10° NNW 05:21:48 63° ENE 05:26:35 10° SSE visible
25 Oct 6.2 19:41:43 10° S 19:41:57 11° S 19:41:57 11° S visible
26 Oct 5.9 04:15:09 10° N 04:19:12 25° NE 04:23:12 10° ESE visible
26 Oct 4.0 05:55:02 10° NNW 05:59:42 48° WSW 06:04:18 10° S visible
26 Oct 5.3 18:40:41 10° SSE 18:42:29 18° SE 18:42:29 18° SE visible
26 Oct 6.1 20:19:53 10° SW 20:21:05 17° SW 20:21:05 17° SW visible
27 Oct 6.8 03:14:25 10° NNE 03:16:09 12° NE 03:17:54 10° ENE visible
27 Oct 4.2 04:52:39 10° NNW 04:57:28 62° ENE 05:02:14 10° SE visible
27 Oct 3.9 19:17:25 10° S 19:21:30 57° SSE 19:21:30 57° SSE visible
27 Oct 6.6 20:59:20 10° W 21:00:05 13° W 21:00:05 13° W visible
28 Oct 5.9 03:50:50 10° N 03:54:51 25° NE 03:58:50 10° ESE visible
28 Oct 3.9 05:30:41 10° NNW 05:35:22 50° WSW 05:39:59 10° S visible
28 Oct 4.8 18:16:25 10° SSE 18:20:16 24° E 18:21:44 21° ENE visible
28 Oct 4.7 19:55:32 10° SW 20:00:12 47° WNW 20:00:19 47° WNW visible
29 Oct 6.8 02:50:47 11° NNE 02:51:48 11° NE 02:53:25 10° ENE visible
29 Oct 4.2 04:29:22 16° NNW 04:33:08 60° ENE 04:37:53 10° SE visible
29 Oct 5.2 06:09:35 10° NW 06:12:54 19° W 06:16:11 10° SW visible
29 Oct 3.7 18:53:06 10° S 18:57:54 65° ESE 19:00:20 29° NE visible
29 Oct 6.1 20:34:57 10° W 20:38:36 21° NW 20:38:54 21° NW visible
30 Oct 5.8 03:29:38 23° NE 03:30:30 24° NE 03:34:27 10° ESE visible
30 Oct 3.9 05:08:14 23° NW 05:11:03 51° WSW 05:15:41 10° S visible
30 Oct 4.9 17:52:09 10° SSE 17:55:57 23° E 17:59:46 10° NE visible
30 Oct 4.7 19:31:11 10° SW 19:35:53 48° WNW 19:38:41 23° N visible
31 Oct 4.2 04:08:40 58° NE 04:08:48 58° ENE 04:13:32 10° SE visible
31 Oct 5.1 05:47:16 17° WNW 05:48:35 19° W 05:51:55 10° SW visible
31 Oct 3.7 18:28:47 10° S 18:33:34 63° ESE 18:38:15 11° NNE visible
31 Oct 6.1 20:10:34 10° W 20:14:16 21° NW 20:16:47 15° NNW visible
01 Nov 6.5 03:09:11 14° E 03:09:11 14° E 03:10:03 10° ESE visible
01 Nov 4.2 04:47:49 43° SSW 04:47:49 43° SSW 04:51:22 10° S visible
01 Nov 5.0 17:27:52 10° SSE 17:31:38 23° E 17:35:25 10° NE visible
01 Nov 4.6 19:06:50 10° SW 19:11:33 50° WNW 19:16:11 11° NNE visible
02 Nov 6.1 03:48:21 15° SE 03:48:21 15° SE 03:49:11 10° SE visible
02 Nov 5.7 05:26:58 13° SW 05:26:58 13° SW 05:27:39 10° SW visible
02 Nov 3.8 18:04:27 10° S 18:09:15 61° ESE 18:14:04 10° NNE visible
02 Nov 6.1 19:46:11 10° WSW 19:49:55 22° NW 19:53:40 10° N visible
